timestamp,wind_dir_avg,wind_spd_max_dir,wind_spd_avg,wind_spd_gust,battery_voltage,lat,long
2017-11-05 00:00:00+00:00,298.0,295.0,14.54,17.36,,47.59359,-54.27349
2017-11-05 00:10:00+00:00,297.0,290.0,13.21,15.9,,47.59359,-54.27349
2017-11-05 00:20:00+00:00,298.0,297.0,13.97,16.03,,47.59359,-54.27349
2017-11-05 00:30:00+00:00,303.0,310.0,11.22,13.09,,47.59359,-54.27349
2017-11-05 00:40:00+00:00,299.0,301.0,10.93,12.98,,47.59359,-54.27349
2017-11-05 00:50:00+00:00,298.0,300.0,11.54,14.62,,47.59359,-54.27349
2017-11-05 01:00:00+00:00,299.0,312.0,11.08,13.26,,47.59359,-54.27349
2017-11-05 01:10:00+00:00,295.0,292.0,11.25,15.9,,47.59359,-54.27349
2017-11-05 01:20:00+00:00,295.0,298.0,11.57,13.47,,47.59359,-54.27349
2017-11-05 01:30:00+00:00,290.0,297.0,11.74,13.24,,47.59359,-54.27349
2017-11-05 01:40:00+00:00,299.0,297.0,10.03,12.48,,47.59359,-54.27349
2017-11-05 01:50:00+00:00,295.0,297.0,9.75,11.91,,47.59359,-54.27349
2017-11-05 02:00:00+00:00,302.0,306.0,11.11,13.01,,47.59359,-54.27349
2017-11-05 02:10:00+00:00,289.0,298.0,10.75,14.22,,47.59359,-54.27349
2017-11-05 02:20:00+00:00,304.0,299.0,12.4,14.45,,47.59359,-54.27349
2017-11-05 02:30:00+00:00,295.0,298.0,12.03,14.04,,47.59359,-54.27349
2017-11-05 02:40:00+00:00,303.0,305.0,9.69,11.27,,47.59359,-54.27349
2017-11-05 02:50:00+00:00,293.0,290.0,10.03,13.14,,47.59359,-54.27349
2017-11-05 03:00:00+00:00,297.0,298.0,10.64,12.78,,47.59359,-54.27349
2017-11-05 03:10:00+00:00,288.0,291.0,10.72,13.4,,47.59359,-54.27349
2017-11-05 03:20:00+00:00,287.0,286.0,8.38,10.72,,47.59359,-54.27349
2017-11-05 03:30:00+00:00,288.0,287.0,9.77,10.81,,47.59359,-54.27349
2017-11-05 03:40:00+00:00,296.0,297.0,8.76,11.36,,47.59359,-54.27349
2017-11-05 03:50:00+00:00,299.0,294.0,8.47,11.77,,47.59359,-54.27349
2017-11-05 04:00:00+00:00,297.0,291.0,11.28,13.57,,47.59359,-54.27349
2017-11-05 04:10:00+00:00,300.0,300.0,9.75,11.07,,47.59359,-54.27349
2017-11-05 04:20:00+00:00,293.0,300.0,9.94,13.39,,47.59359,-54.27349
2017-11-05 04:30:00+00:00,297.0,298.0,10.4,13.73,,47.59359,-54.27349
2017-11-05 04:40:00+00:00,299.0,297.0,10.14,12.47,,47.59359,-54.27349
2017-11-05 04:50:00+00:00,303.0,298.0,9.82,11.65,,47.59359,-54.27349
2017-11-05 05:00:00+00:00,303.0,303.0,7.97,10.85,,47.59359,-54.27349
2017-11-05 05:10:00+00:00,296.0,295.0,9.29,11.25,,47.59359,-54.27349
2017-11-05 05:20:00+00:00,293.0,282.0,8.12,10.42,,47.59359,-54.27349
2017-11-05 05:30:00+00:00,305.0,301.0,8.13,10.3,,47.59359,-54.27349
2017-11-05 05:40:00+00:00,305.0,303.0,10.54,12.19,,47.59359,-54.27349
2017-11-05 05:50:00+00:00,315.0,305.0,10.19,12.87,,47.59359,-54.27349
2017-11-05 06:00:00+00:00,315.0,307.0,9.24,11.63,,47.59359,-54.27349
2017-11-05 06:10:00+00:00,324.0,315.0,8.67,10.4,,47.59359,-54.27349
2017-11-05 06:20:00+00:00,316.0,313.0,9.95,12.55,,47.59359,-54.27349
2017-11-05 06:30:00+00:00,314.0,321.0,7.38,8.9,,47.59359,-54.27349
2017-11-05 06:40:00+00:00,312.0,311.0,8.12,9.48,,47.59359,-54.27349
2017-11-05 06:50:00+00:00,319.0,305.0,8.65,10.11,,47.59359,-54.27349
2017-11-05 07:00:00+00:00,324.0,321.0,8.57,10.47,,47.59359,-54.27349
2017-11-05 07:10:00+00:00,318.0,330.0,8.2,10.01,,47.59359,-54.27349
2017-11-05 07:20:00+00:00,319.0,310.0,8.03,9.28,,47.59359,-54.27349
2017-11-05 07:30:00+00:00,324.0,326.0,8.2,9.32,,47.59359,-54.27349
2017-11-05 07:40:00+00:00,312.0,314.0,8.04,9.52,,47.59359,-54.27349
2017-11-05 07:50:00+00:00,323.0,314.0,8.99,11.18,,47.59359,-54.27349
2017-11-05 08:00:00+00:00,322.0,316.0,7.67,9.39,,47.59359,-54.27349
2017-11-05 08:10:00+00:00,324.0,325.0,7.49,9.13,,47.59359,-54.27349
2017-11-05 08:20:00+00:00,306.0,306.0,7.37,8.71,,47.59359,-54.27349
2017-11-05 08:30:00+00:00,309.0,308.0,7.9,9.44,,47.59359,-54.27349
2017-11-05 08:40:00+00:00,312.0,307.0,8.06,9.13,,47.59359,-54.27349
2017-11-05 08:50:00+00:00,310.0,310.0,8.28,10.58,,47.59359,-54.27349
2017-11-05 09:00:00+00:00,320.0,323.0,8.38,10.74,,47.59359,-54.27349
2017-11-05 09:10:00+00:00,314.0,317.0,8.44,10.16,,47.59359,-54.27349
2017-11-05 09:20:00+00:00,310.0,306.0,8.28,10.1,,47.59359,-54.27349
2017-11-05 09:30:00+00:00,317.0,317.0,9.2,10.23,,47.59359,-54.27349
2017-11-05 09:40:00+00:00,313.0,321.0,9.29,10.91,,47.59359,-54.27349
2017-11-05 09:50:00+00:00,310.0,305.0,8.67,10.17,,47.59359,-54.27349
2017-11-05 10:00:00+00:00,314.0,312.0,10.56,12.22,,47.59359,-54.27349
2017-11-05 10:10:00+00:00,311.0,313.0,11.63,13.69,,47.59359,-54.27349
2017-11-05 10:20:00+00:00,314.0,313.0,9.79,10.79,,47.59359,-54.27349
2017-11-05 10:30:00+00:00,316.0,312.0,11.07,12.44,,47.59359,-54.27349
2017-11-05 10:40:00+00:00,323.0,324.0,8.02,9.54,,47.59359,-54.27349
2017-11-05 10:50:00+00:00,327.0,329.0,7.56,10.5,,47.59359,-54.27349
2017-11-05 11:00:00+00:00,310.0,312.0,7.8,9.21,,47.59359,-54.27349
2017-11-05 11:10:00+00:00,319.0,323.0,8.21,9.5,,47.59359,-54.27349
2017-11-05 11:20:00+00:00,319.0,322.0,8.23,9.35,,47.59359,-54.27349
2017-11-05 11:30:00+00:00,309.0,290.0,6.52,7.8,,47.59359,-54.27349
2017-11-05 11:40:00+00:00,314.0,319.0,6.75,8.39,,47.59359,-54.27349
2017-11-05 11:50:00+00:00,322.0,306.0,6.26,7.95,,47.59359,-54.27349
2017-11-05 12:00:00+00:00,305.0,295.0,6.61,8.47,,47.59359,-54.27349
2017-11-05 12:10:00+00:00,318.0,331.0,6.58,8.92,,47.59359,-54.27349
2017-11-05 12:20:00+00:00,325.0,319.0,6.1,7.66,,47.59359,-54.27349
2017-11-05 12:30:00+00:00,329.0,333.0,7.78,9.76,,47.59359,-54.27349
2017-11-05 12:40:00+00:00,320.0,315.0,9.76,11.93,,47.59359,-54.27349
2017-11-05 12:50:00+00:00,332.0,335.0,8.7,11.23,,47.59359,-54.27349
2017-11-05 13:00:00+00:00,352.0,344.0,6.89,8.28,,47.59359,-54.27349
2017-11-05 13:10:00+00:00,348.0,354.0,8.78,10.82,,47.59359,-54.27349
2017-11-05 13:20:00+00:00,355.0,353.0,9.65,10.69,,47.59359,-54.27349
2017-11-05 13:30:00+00:00,340.0,340.0,10.1,10.89,,47.59359,-54.27349
2017-11-05 13:40:00+00:00,325.0,331.0,9.04,11.31,,47.59359,-54.27349
2017-11-05 13:50:00+00:00,359.0,359.0,9.73,12.19,,47.59359,-54.27349
2017-11-05 14:00:00+00:00,343.0,349.0,9.2,10.55,,47.59359,-54.27349
2017-11-05 14:10:00+00:00,342.0,331.0,9.38,11.07,,47.59359,-54.27349
2017-11-05 14:20:00+00:00,325.0,322.0,8.9,10.38,,47.59359,-54.27349
2017-11-05 14:30:00+00:00,349.0,341.0,9.07,11.32,,47.59359,-54.27349
2017-11-05 14:40:00+00:00,323.0,312.0,9.25,10.5,,47.59359,-54.27349
2017-11-05 14:50:00+00:00,335.0,354.0,7.01,8.99,,47.59359,-54.27349
2017-11-05 15:00:00+00:00,322.0,323.0,8.47,9.12,,47.59359,-54.27349
2017-11-05 15:10:00+00:00,327.0,340.0,6.94,8.09,,47.59359,-54.27349
2017-11-05 15:20:00+00:00,345.0,335.0,7.84,9.59,,47.59359,-54.27349
2017-11-05 15:30:00+00:00,349.0,351.0,9.08,10.62,,47.59359,-54.27349
2017-11-05 15:40:00+00:00,343.0,344.0,7.54,10.43,,47.59359,-54.27349
2017-11-05 15:50:00+00:00,345.0,336.0,6.66,7.5,,47.59359,-54.27349
2017-11-05 16:00:00+00:00,341.0,343.0,6.22,8.45,,47.59359,-54.27349
2017-11-05 16:10:00+00:00,344.0,341.0,5.66,6.8,,47.59359,-54.27349
2017-11-05 16:20:00+00:00,332.0,330.0,5.59,7.09,,47.59359,-54.27349
2017-11-05 16:30:00+00:00,332.0,328.0,5.26,6.44,,47.59359,-54.27349
2017-11-05 16:40:00+00:00,359.0,344.0,5.61,6.56,,47.59359,-54.27349
2017-11-05 16:50:00+00:00,348.0,350.0,3.92,5.01,,47.59359,-54.27349
2017-11-05 17:00:00+00:00,4.0,356.0,4.96,6.21,,47.59359,-54.27349
2017-11-05 17:10:00+00:00,347.0,0.0,4.54,5.59,,47.59359,-54.27349
2017-11-05 17:20:00+00:00,328.0,328.0,5.77,7.06,,47.59359,-54.27349
2017-11-05 17:30:00+00:00,348.0,354.0,5.09,7.5,,47.59359,-54.27349
2017-11-05 17:40:00+00:00,333.0,336.0,3.4,4.68,,47.59359,-54.27349
2017-11-05 17:50:00+00:00,331.0,322.0,5.19,6.46,,47.59359,-54.27349
2017-11-05 18:00:00+00:00,342.0,346.0,5.66,6.67,,47.59359,-54.27349
2017-11-05 18:10:00+00:00,322.0,328.0,5.31,6.09,,47.59359,-54.27349
2017-11-05 18:20:00+00:00,347.0,352.0,5.49,6.5,,47.59359,-54.27349
2017-11-05 18:30:00+00:00,16.0,20.0,4.52,5.31,,47.59359,-54.27349
2017-11-05 18:40:00+00:00,314.0,318.0,2.26,2.64,,47.59359,-54.27349
2017-11-05 18:50:00+00:00,324.0,320.0,4.42,5.26,,47.59359,-54.27349
2017-11-05 19:00:00+00:00,358.0,359.0,4.5,5.15,,47.59359,-54.27349
2017-11-05 19:10:00+00:00,336.0,331.0,4.64,5.8,,47.59359,-54.27349
2017-11-05 19:20:00+00:00,358.0,340.0,4.01,5.4,,47.59359,-54.27349
2017-11-05 19:30:00+00:00,323.0,319.0,3.74,4.81,,47.59359,-54.27349
2017-11-05 19:40:00+00:00,332.0,342.0,4.9,5.55,,47.59359,-54.27349
2017-11-05 19:50:00+00:00,357.0,356.0,3.51,4.37,,47.59359,-54.27349
2017-11-05 20:00:00+00:00,305.0,300.0,4.11,4.94,,47.59359,-54.27349
2017-11-05 20:10:00+00:00,306.0,308.0,3.58,4.48,,47.59359,-54.27349
2017-11-05 20:20:00+00:00,341.0,348.0,3.26,4.17,,47.59359,-54.27349
2017-11-05 20:30:00+00:00,352.0,1.0,2.34,2.65,,47.59359,-54.27349
2017-11-05 20:40:00+00:00,313.0,317.0,1.92,2.7,,47.59359,-54.27349
2017-11-05 20:50:00+00:00,279.0,276.0,1.26,1.97,,47.59359,-54.27349
2017-11-05 21:00:00+00:00,340.0,348.0,1.8,2.36,,47.59359,-54.27349
2017-11-05 21:10:00+00:00,321.0,323.0,2.43,3.35,,47.59359,-54.27349
2017-11-05 21:20:00+00:00,345.0,348.0,2.98,3.44,,47.59359,-54.27349
2017-11-05 21:30:00+00:00,300.0,308.0,2.12,2.65,,47.59359,-54.27349
2017-11-05 21:40:00+00:00,321.0,326.0,3.58,4.59,,47.59359,-54.27349
2017-11-05 21:50:00+00:00,333.0,327.0,2.77,3.25,,47.59359,-54.27349
2017-11-05 22:00:00+00:00,333.0,326.0,3.31,3.68,,47.59359,-54.27349
2017-11-05 22:10:00+00:00,340.0,343.0,3.88,4.42,,47.59359,-54.27349
2017-11-05 22:20:00+00:00,324.0,336.0,2.56,3.11,,47.59359,-54.27349
2017-11-05 22:30:00+00:00,348.0,322.0,1.93,2.79,,47.59359,-54.27349
2017-11-05 22:40:00+00:00,347.0,343.0,3.16,3.95,,47.59359,-54.27349
2017-11-05 22:50:00+00:00,339.0,346.0,2.85,3.35,,47.59359,-54.27349
2017-11-05 23:00:00+00:00,342.0,344.0,2.14,2.62,,47.59359,-54.27349
2017-11-05 23:10:00+00:00,342.0,343.0,2.63,3.18,,47.59359,-54.27349
2017-11-05 23:20:00+00:00,346.0,346.0,2.69,3.28,,47.59359,-54.27349
2017-11-05 23:30:00+00:00,338.0,350.0,2.04,2.74,,47.59359,-54.27349
2017-11-05 23:40:00+00:00,313.0,322.0,0.94,1.41,,47.59359,-54.27349
2017-11-05 23:50:00+00:00,46.0,39.0,1.08,1.39,,47.59359,-54.27349
